Location: Unspecified
(51.6250°N, 0.8230°E)
Time: 14:55:02
(UTC+00:00)

Okean 3 - Visible Passes

Search period start: 18 December 2017 00:00
Search period end: 28 December 2017 00:00
Orbit: 577 x 602 km, 82.5° (Epoch: 17 December)

Date Brightness Start Highest point End Pass type
(mag) Time Alt. Az. Time Alt. Az. Time Alt. Az.
18 Dec 4.5 16:43:21 10° SSW 16:47:24 46° WNW 16:51:31 10° N visible
19 Dec 5.1 16:51:49 10° SW 16:55:39 33° WNW 16:59:32 10° N visible
20 Dec 5.6 17:00:27 10° WSW 17:03:55 24° WNW 17:07:28 10° NNW visible
21 Dec 6.0 17:09:17 10° WSW 17:12:15 18° WNW 17:15:16 10° NNW visible
22 Dec 6.2 17:18:25 10° W 17:20:37 14° WNW 17:22:51 10° NNW visible
23 Dec 6.5 17:28:33 10° WNW 17:29:01 10° WNW 17:29:31 10° NW visible
